カタログに戻る

PRAETORIAN SDA_514

運用中PO
NORAD 100072·PAYLOAD·🇺🇸 United States

打ち上げ Jul 16, 2026 から Vandenberg Space Force Base

Loading…

次のパス (今後24時間)

TLE

最新Source: Space-Track

元期: Sep 14, 2026, 16:52 UTC

1 A0072U 26163P   26257.70306812  .00000148  00000-0  11901-3 0  9994
2 A0072  81.4790 255.2853 0013718  58.1066 302.1424 13.85294275  8297

AllMySatでPRAETORIAN SDA_514をリアルタイム追跡

Download on the App Store